Regional Weather Roundup
Issued by NWS Midland/Odessa, TX

Skip options and go directly to product.
Home | Oldest Version | Previous Version | Current Version | All | Text Only | Save Text | Print | Product List | Glossary On

Skip product version selection by date and time.   
889
ASUS44 KMAF 261010
RWRMAF
MIDLAND AREA WEATHER ROUNDUP
NATIONAL WEATHER SERVICE MIDLAND TX
400 AM CST WED NOV 26 2014

...IN SOUTHWEST TEXAS AND SOUTHEAST NEW MEXICO...

CITY           SKY/WX    TMP DP  RH WIND       PRES   REMARKS
ALPINE         CLEAR     46   6  20 W21       30.28F WCI  38
ANDREWS        FAIR      42  13  30 W16       30.12F WCI  34
ARTESIA        NOT AVBL
BIG SPRING     CLEAR     38  17  42 S6        30.14F WCI  34
CARLSBAD       CLEAR     40  15  36 SE6       30.14R WCI  36
DRYDEN           N/A     51  11  20 W15G24    30.18S
FORT STOCKTON  CLEAR     47  12  24 SW15      30.17S
GUAD PASS      PTCLDY    38   7  27 SW31      30.24S WCI  25
HOBBS          CLEAR     43   9  24 W13       30.13F WCI  36
MARFA          CLEAR     30   7  37 E5        30.29S WCI  25
MIDLAND AIRPK  CLEAR     45  14  29 W10       30.13F WCI  39
MIDLAND INTL   CLEAR     43  14  31 W12       30.13F WCI  37
ODESSA         CLEAR     39  12  33 W6        30.14F WCI  35
PECOS          CLEAR     49  11  21 W15       30.16S
PRESIDIO       FAIR      37  18  47 N3        30.29R
SEMINOLE       CLEAR     40  13  33 W10       30.13S WCI  34
SNYDER         CLEAR     37  21  53 SW8       30.09S WCI  30
WINK           PTCLDY    35  14  42 W6        30.14S WCI  30
$$
...OTHER STATIONS IN TEXAS...

CITY           SKY/WX    TMP DP  RH WIND       PRES   REMARKS
ABILENE        CLEAR     43  22  43 SW9       30.07F WCI  38
AMARILLO       CLEAR     40  20  44 N16G24    30.09R WCI  31
AUSTIN         CLEAR     43  34  70 SW9       30.17S WCI  38
BROWNSVILLE    CLEAR     43  39  86 SW5       30.27R
CORPUS CHRISTI CLEAR     45  40  82 SW6       30.25S
DALLAS FTW     CLEAR     39  30  70 S9        30.04F WCI  33
DEL RIO        CLEAR     41  32  70 E3        30.19F
EL PASO        CLEAR     34  11  38 CALM      30.28S
HOUSTON INT    CLEAR     48  38  68 S3        30.20S
LUBBOCK        PTCLDY    42  16  34 NW14      30.06R WCI  35
SAN ANGELO     CLEAR     44  20  38 SW13      30.14S WCI  38
SAN ANTONIO    CLEAR     45  33  63 SW6       30.20S
WACO           CLEAR     39  33  79 SW10      30.12R WCI  32
WICHITA FALLS  NOT AVBL
$$
...OTHER LOCATIONS IN NEW MEXICO...

CITY           SKY/WX    TMP DP  RH WIND       PRES   REMARKS
ALAMAGORDO     PTCLDY    39   5  24 MISG      30.28S
ALBUQUERQUE    PTCLDY    37   7  28 W3        30.33R
CANNON AFB     MOCLDY    43  17  34 NW16      30.09S WCI  35
CLOVIS         PTCLDY    41  16  36 W14       30.09R WCI  33
HOLLOMAN AFB   PTCLDY    31   6  35 N9        30.28R WCI  23
ROSWELL        PTCLDY    32  15  49 S6        30.16R WCI  26
RUIDOSO        PTCLDY    41  16  36 NW20G36   30.28F WCI  32
SANTA FE       PTCLDY    35  13  40 N18G25    30.25R WCI  24
TRUTH OR CONSE CLEAR     35   8  32 SE5       30.31S WCI  31
TUCUMCARI      PTCLDY    41  21  44 W16       30.07R WCI  33
$$

USA.gov is the U.S. government's official web portal to all federal, state and local government web resources and services.